Date,TemperatureHighF,TemperatureAvgF,TemperatureLowF,DewpointHighF,DewpointAvgF,DewpointLowF,HumidityHigh,HumidityAvg,HumidityLow,PressureMaxIn,PressureMinIn,WindSpeedMaxMPH,WindSpeedAvgMPH,GustSpeedMaxMPH,PrecipitationSumIn
2013-1-2,35.0,31.7,26.0,21.0,17.2,13.0,71,54,48,0.00,40.00,3,2,11,0.00
2013-1-3,32.0,29.4,25.0,26.0,21.2,14.0,77,71,60,0.00,40.00,2,2,4,0.00
2013-1-4,37.0,31.3,27.0,30.0,25.1,19.0,87,78,68,0.00,40.00,2,1,7,0.00
2013-1-5,44.0,36.4,28.0,32.0,27.8,24.0,89,71,58,0.00,40.00,2,1,6,0.00
2013-1-6,32.0,29.2,26.0,25.0,20.8,13.0,91,71,46,0.00,40.00,2,1,6,0.00
2013-1-7,40.0,32.7,24.0,31.0,25.6,20.0,85,75,52,0.00,40.00,2,1,4,0.00
2013-1-8,38.0,33.7,30.0,34.0,31.1,28.0,94,90,85,0.00,40.00,2,1,5,0.00
2013-1-9,36.0,31.5,27.0,31.0,29.5,27.0,98,92,76,0.00,40.00,6,2,11,0.00
2013-1-10,23.0,20.5,18.0,17.0,12.9,10.0,91,72,57,0.00,40.00,3,2,10,0.00
2013-1-11,23.0,21.1,19.0,12.0,10.9,9.0,71,64,55,0.00,40.00,2,2,10,0.00
2013-1-14,31.0,26.4,23.0,20.0,10.4,-2.0,75,53,32,0.00,40.00,4,2,12,0.00
2013-1-15,45.0,33.9,26.0,28.0,19.9,15.0,80,59,31,0.00,40.00,5,2,13,0.00
2013-1-16,45.0,34.4,29.0,24.0,14.4,1.0,70,46,15,0.00,40.00,5,2,14,0.00
2013-1-17,38.0,30.7,25.0,22.0,17.2,12.0,74,58,33,0.00,40.00,3,2,6,0.00
2013-1-18,37.0,29.8,24.0,25.0,21.9,17.0,85,72,56,0.00,40.00,2,1,7,0.00
2013-1-19,33.0,28.6,24.0,26.0,21.2,13.0,89,74,61,0.00,40.00,2,2,3,0.00
2013-1-20,39.0,31.5,23.0,26.0,17.3,8.0,88,58,29,0.00,40.00,3,2,5,0.00
2013-1-21,41.0,32.2,27.0,27.0,17.1,11.0,76,54,38,0.00,40.00,2,2,6,0.00
2013-1-22,40.0,34.4,28.0,31.0,26.2,21.0,88,73,50,0.00,40.00,2,1,6,0.00
2013-1-23,42.0,38.8,36.0,29.0,17.8,7.0,74,45,24,0.00,40.00,2,2,6,0.00
2013-1-24,39.0,36.0,34.0,37.0,34.5,29.0,98,95,74,0.00,40.00,2,1,9,0.00
2013-1-25,42.0,37.0,33.0,40.0,36.2,33.0,99,97,87,0.00,40.00,3,1,8,0.00
2013-1-26,44.0,36.4,30.0,35.0,28.9,21.0,97,76,48,0.00,40.00,6,2,14,0.00
2013-1-27,32.0,26.2,20.0,24.0,17.8,12.0,90,70,56,0.00,40.00,7,2,13,0.00
2013-1-28,32.0,24.9,16.0,25.0,16.8,9.0,85,71,57,0.00,40.00,4,1,7,0.00
2013-1-29,44.0,36.4,31.0,29.0,26.7,23.0,77,68,54,0.00,40.00,5,2,15,0.00
2013-1-30,43.0,36.1,30.0,33.0,27.3,20.0,85,71,47,0.00,40.00,2,1,7,0.00
2013-1-31,41.0,35.6,28.0,31.0,25.8,19.0,85,68,47,0.00,40.00,2,1,6,0.00